Time,TemperatureF,DewpointF,PressureIn,WindDirection,WindDirectionDegrees,WindSpeedMPH,WindSpeedGustMPH,Humidity,HourlyPrecipIn,Conditions,Clouds,dailyrainin,SoftwareType,DateUTC
2013-03-05 00:02:00,47.5,23.2,29.77,SE,142,4.0,8.1,38,0.00,,,0.00,VWS V13.01,2013-03-04 23:02:00,
2013-03-05 00:07:00,47.3,23.0,29.77,East,96,4.0,8.1,38,0.00,,,0.00,VWS V13.01,2013-03-04 23:07:00,
2013-03-05 00:12:00,47.1,22.8,29.77,ESE,104,5.4,6.7,38,0.00,,,0.00,VWS V13.01,2013-03-04 23:12:00,
2013-03-05 00:17:00,47.1,22.8,29.77,ENE,60,4.9,8.7,38,0.00,,,0.00,VWS V13.01,2013-03-04 23:17:00,
2013-03-05 00:23:00,47.1,22.8,29.77,NE,46,6.3,7.6,38,0.00,,,0.00,VWS V13.01,2013-03-04 23:23:00,
2013-03-05 00:28:00,47.3,23.0,29.77,East,94,5.4,7.6,38,0.00,,,0.00,VWS V13.01,2013-03-04 23:28:00,
2013-03-05 00:33:00,47.3,23.0,29.77,ESE,103,7.6,7.6,38,0.00,,,0.00,VWS V13.01,2013-03-04 23:33:00,
2013-03-05 00:38:00,47.3,23.0,29.77,ESE,106,5.4,8.7,38,0.00,,,0.00,VWS V13.01,2013-03-04 23:38:00,
2013-03-05 00:43:00,47.1,22.8,29.77,ENE,64,3.6,6.7,38,0.00,,,0.00,VWS V13.01,2013-03-04 23:43:00,
2013-03-05 00:48:00,46.9,22.7,29.77,East,100,6.3,8.1,38,0.00,,,0.00,VWS V13.01,2013-03-04 23:48:00,
2013-03-05 00:53:00,46.9,23.3,29.77,East,90,5.4,5.8,39,0.00,,,0.00,VWS V13.01,2013-03-04 23:53:00,
2013-03-05 00:58:00,46.6,23.0,29.77,East,96,5.8,7.6,39,0.00,,,0.00,VWS V13.01,2013-03-04 23:58:00,
2013-03-05 01:03:00,46.4,22.8,29.77,East,101,4.0,6.3,39,0.00,,,0.00,VWS V13.01,2013-03-05 00:03:00,
2013-03-05 01:08:00,46.4,22.8,29.77,East,95,3.6,7.6,39,0.00,,,0.00,VWS V13.01,2013-03-05 00:08:00,
2013-03-05 01:13:00,46.4,22.8,29.77,East,101,4.0,8.1,39,0.00,,,0.00,VWS V13.01,2013-03-05 00:13:00,
2013-03-05 01:18:00,46.4,22.8,29.77,East,81,3.6,8.1,39,0.00,,,0.00,VWS V13.01,2013-03-05 00:18:00,
2013-03-05 01:23:00,46.2,23.2,29.77,East,83,3.1,5.8,40,0.00,,,0.00,VWS V13.01,2013-03-05 00:23:00,
2013-03-05 01:28:00,46.0,23.1,29.77,East,86,5.8,7.6,40,0.00,,,0.00,VWS V13.01,2013-03-05 00:28:00,
2013-03-05 01:33:00,46.0,23.1,29.77,East,81,4.0,6.3,40,0.00,,,0.00,VWS V13.01,2013-03-05 00:33:00,
2013-03-05 01:38:00,45.9,22.9,29.77,East,93,5.4,6.3,40,0.00,,,0.00,VWS V13.01,2013-03-05 00:38:00,
2013-03-05 01:43:00,45.9,22.9,29.77,East,85,5.8,6.3,40,0.00,,,0.00,VWS V13.01,2013-03-05 00:43:00,
2013-03-05 01:48:00,45.7,22.8,29.77,East,84,3.6,7.2,40,0.00,,,0.00,VWS V13.01,2013-03-05 00:48:00,
2013-03-05 01:53:00,45.5,22.6,29.77,ENE,76,5.4,6.3,40,0.00,,,0.00,VWS V13.01,2013-03-05 00:53:00,
2013-03-05 01:58:00,45.5,22.6,29.77,East,96,5.8,8.7,40,0.00,,,0.00,VWS V13.01,2013-03-05 00:58:00,
2013-03-05 02:03:00,45.7,22.8,29.77,ENE,73,5.8,7.6,40,0.00,,,0.00,VWS V13.01,2013-03-05 01:03:00,
2013-03-05 02:08:00,45.7,22.8,29.74,ENE,75,5.4,7.6,40,0.00,,,0.00,VWS V13.01,2013-03-05 01:08:00,
2013-03-05 02:13:00,45.5,22.6,29.74,NE,54,5.8,7.6,40,0.00,,,0.00,VWS V13.01,2013-03-05 01:13:00,
2013-03-05 02:18:00,45.5,22.6,29.74,East,88,6.3,7.6,40,0.00,,,0.00,VWS V13.01,2013-03-05 01:18:00,
2013-03-05 02:23:00,45.3,22.4,29.74,East,84,6.3,8.1,40,0.00,,,0.00,VWS V13.01,2013-03-05 01:23:00,
2013-03-05 02:28:00,45.3,23.0,29.74,East,97,5.8,9.2,41,0.00,,,0.00,VWS V13.01,2013-03-05 01:28:00,
2013-03-05 02:33:00,45.3,23.0,29.74,ENE,77,4.9,8.7,41,0.00,,,0.00,VWS V13.01,2013-03-05 01:33:00,
2013-03-05 02:38:00,45.5,23.2,29.74,East,90,5.8,8.7,41,0.00,,,0.00,VWS V13.01,2013-03-05 01:38:00,
2013-03-05 02:43:00,45.3,23.0,29.74,ENE,68,5.4,7.6,41,0.00,,,0.00,VWS V13.01,2013-03-05 01:43:00,
2013-03-05 02:48:00,45.5,23.2,29.74,East,94,6.3,8.3,41,0.00,,,0.00,VWS V13.01,2013-03-05 01:48:00,
2013-03-05 02:53:00,45.5,23.2,29.74,East,82,5.8,7.6,41,0.00,,,0.00,VWS V13.01,2013-03-05 01:53:00,
2013-03-05 02:58:00,45.5,22.6,29.74,ENE,68,5.8,7.6,40,0.00,,,0.00,VWS V13.01,2013-03-05 01:58:00,
2013-03-05 03:03:00,45.5,22.6,29.74,ESE,103,5.4,6.3,40,0.00,,,0.00,VWS V13.01,2013-03-05 02:03:00,
2013-03-05 03:08:00,45.1,22.3,29.74,ENE,68,3.6,6.3,40,0.00,,,0.00,VWS V13.01,2013-03-05 02:08:00,
2013-03-05 03:13:00,45.0,22.7,29.74,East,82,6.3,6.3,41,0.00,,,0.00,VWS V13.01,2013-03-05 02:13:00,
2013-03-05 03:18:00,44.8,22.5,29.74,East,87,5.4,6.3,41,0.00,,,0.00,VWS V13.01,2013-03-05 02:18:00,
2013-03-05 03:23:00,44.6,22.4,29.74,East,98,6.3,6.3,41,0.00,,,0.00,VWS V13.01,2013-03-05 02:23:00,
2013-03-05 03:28:00,44.4,22.2,29.74,ENE,60,4.0,7.6,41,0.00,,,0.00,VWS V13.01,2013-03-05 02:28:00,
2013-03-05 03:33:00,44.2,22.0,29.74,East,90,6.3,7.2,41,0.00,,,0.00,VWS V13.01,2013-03-05 02:33:00,
2013-03-05 03:38:00,44.2,22.0,29.74,East,84,3.6,7.2,41,0.00,,,0.00,VWS V13.01,2013-03-05 02:38:00,
2013-03-05 03:44:00,44.1,21.9,29.74,ENE,73,5.4,6.3,41,0.00,,,0.00,VWS V13.01,2013-03-05 02:44:00,
2013-03-05 03:49:00,43.9,22.3,29.74,NNE,18,4.9,6.3,42,0.00,,,0.00,VWS V13.01,2013-03-05 02:49:00,
2013-03-05 03:54:00,43.7,22.1,29.74,NE,34,4.0,6.3,42,0.00,,,0.00,VWS V13.01,2013-03-05 02:54:00,
2013-03-05 03:59:00,43.5,22.0,29.74,SE,134,3.1,6.3,42,0.00,,,0.00,VWS V13.01,2013-03-05 02:59:00,
2013-03-05 04:04:00,43.3,21.8,29.71,East,91,4.5,4.5,42,0.00,,,0.00,VWS V13.01,2013-03-05 03:04:00,
2013-03-05 04:09:00,43.0,21.5,29.71,ENE,59,3.6,5.8,42,0.00,,,0.00,VWS V13.01,2013-03-05 03:09:00,
2013-03-05 04:14:00,42.8,21.3,29.71,ESE,103,2.7,6.3,42,0.00,,,0.00,VWS V13.01,2013-03-05 03:14:00,
2013-03-05 04:19:00,42.8,21.9,29.71,ENE,58,3.6,6.3,43,0.00,,,0.00,VWS V13.01,2013-03-05 03:19:00,
2013-03-05 04:24:00,42.6,21.7,29.71,ESE,105,5.4,5.8,43,0.00,,,0.00,VWS V13.01,2013-03-05 03:24:00,
2013-03-05 04:29:00,42.6,22.2,29.71,East,82,2.2,5.8,44,0.00,,,0.00,VWS V13.01,2013-03-05 03:29:00,
2013-03-05 04:34:00,42.4,22.1,29.71,ESE,104,2.7,4.0,44,0.00,,,0.00,VWS V13.01,2013-03-05 03:34:00,
2013-03-05 04:39:00,42.3,21.9,29.71,East,92,2.7,4.0,44,0.00,,,0.00,VWS V13.01,2013-03-05 03:39:00,
2013-03-05 04:44:00,42.1,21.8,29.71,East,84,3.6,4.5,44,0.00,,,0.00,VWS V13.01,2013-03-05 03:44:00,
2013-03-05 04:49:00,41.9,21.6,29.71,ESE,109,2.7,4.5,44,0.00,,,0.00,VWS V13.01,2013-03-05 03:49:00,
2013-03-05 04:54:00,41.7,22.0,29.71,East,91,3.6,4.9,45,0.00,,,0.00,VWS V13.01,2013-03-05 03:54:00,
2013-03-05 04:59:00,41.7,22.0,29.71,East,97,2.7,4.9,45,0.00,,,0.00,VWS V13.01,2013-03-05 03:59:00,
2013-03-05 05:04:00,41.7,22.0,29.71,ESE,109,3.1,4.5,45,0.00,,,0.00,VWS V13.01,2013-03-05 04:04:00,
2013-03-05 05:09:00,41.7,22.0,29.71,ENE,65,3.1,5.8,45,0.00,,,0.00,VWS V13.01,2013-03-05 04:09:00,
2013-03-05 05:14:00,41.7,22.5,29.71,East,89,2.7,5.8,46,0.00,,,0.00,VWS V13.01,2013-03-05 04:14:00,
2013-03-05 05:19:00,41.7,22.5,29.71,ESE,104,3.1,5.8,46,0.00,,,0.00,VWS V13.01,2013-03-05 04:19:00,
2013-03-05 05:24:00,41.7,22.5,29.71,East,83,3.6,4.9,46,0.00,,,0.00,VWS V13.01,2013-03-05 04:24:00,
2013-03-05 05:29:00,41.5,22.3,29.71,East,83,5.4,5.4,46,0.00,,,0.00,VWS V13.01,2013-03-05 04:29:00,
2013-03-05 05:34:00,41.5,22.3,29.71,East,95,3.6,5.4,46,0.00,,,0.00,VWS V13.01,2013-03-05 04:34:00,
2013-03-05 05:39:00,41.5,22.3,29.71,East,94,4.5,5.4,46,0.00,,,0.00,VWS V13.01,2013-03-05 04:39:00,
2013-03-05 05:44:00,41.5,22.3,29.71,ENE,75,4.0,4.9,46,0.00,,,0.00,VWS V13.01,2013-03-05 04:44:00,
2013-03-05 05:49:00,41.7,22.5,29.71,ESE,113,2.7,6.3,46,0.00,,,0.00,VWS V13.01,2013-03-05 04:49:00,
2013-03-05 05:54:00,41.5,22.3,29.71,East,86,0.0,4.0,46,0.00,,,0.00,VWS V13.01,2013-03-05 04:54:00,
2013-03-05 05:59:00,41.5,22.3,29.71,East,84,3.6,5.4,46,0.00,,,0.00,VWS V13.01,2013-03-05 04:59:00,
2013-03-05 06:00:00,41.5,22.3,29.71,ESE,103,3.1,3.6,46,0.00,,,0.00,VWS V13.01,2013-03-05 05:00:00,
2013-03-05 06:05:00,41.5,22.3,29.71,East,101,3.6,4.9,46,0.00,,,0.00,VWS V13.01,2013-03-05 05:05:00,
2013-03-05 06:10:00,41.4,22.1,29.71,ENE,58,5.8,5.8,46,0.00,,,0.00,VWS V13.01,2013-03-05 05:10:00,
2013-03-05 06:15:00,41.2,22.0,29.71,ESE,108,3.6,5.8,46,0.00,,,0.00,VWS V13.01,2013-03-05 05:15:00,
2013-03-05 06:20:00,41.2,22.5,29.71,East,98,3.6,4.0,47,0.00,,,0.00,VWS V13.01,2013-03-05 05:20:00,
2013-03-05 06:25:00,41.4,22.7,29.71,East,98,4.0,5.8,47,0.00,,,0.00,VWS V13.01,2013-03-05 05:25:00,
2013-03-05 06:30:00,41.4,22.1,29.71,East,86,4.9,5.8,46,0.00,,,0.00,VWS V13.01,2013-03-05 05:30:00,
2013-03-05 06:35:00,41.5,22.3,29.71,East,81,4.9,5.8,46,0.00,,,0.00,VWS V13.01,2013-03-05 05:35:00,
2013-03-05 06:40:00,41.5,22.3,29.71,ESE,103,0.0,2.7,46,0.00,,,0.00,VWS V13.01,2013-03-05 05:40:00,
2013-03-05 06:45:00,41.7,22.5,29.71,East,90,3.1,5.8,46,0.00,,,0.00,VWS V13.01,2013-03-05 05:45:00,
2013-03-05 06:50:00,41.7,22.5,29.71,East,85,3.6,4.9,46,0.00,,,0.00,VWS V13.01,2013-03-05 05:50:00,
2013-03-05 06:55:00,41.7,22.5,29.71,East,88,4.9,4.9,46,0.00,,,0.00,VWS V13.01,2013-03-05 05:55:00,
2013-03-05 07:00:00,41.7,22.5,29.71,ESE,102,3.1,3.1,46,0.00,,,0.00,VWS V13.01,2013-03-05 06:00:00,
2013-03-05 07:05:00,41.7,22.5,29.71,East,79,4.0,6.3,46,0.00,,,0.00,VWS V13.01,2013-03-05 06:05:00,
2013-03-05 07:11:00,41.5,22.3,29.71,ENE,78,3.1,4.9,46,0.00,,,0.00,VWS V13.01,2013-03-05 06:11:00,
2013-03-05 07:16:00,41.4,22.1,29.71,ENE,65,2.7,6.3,46,0.00,,,0.00,VWS V13.01,2013-03-05 06:16:00,
2013-03-05 07:21:00,41.2,22.0,29.71,ESE,108,3.1,3.6,46,0.00,,,0.00,VWS V13.01,2013-03-05 06:21:00,
2013-03-05 07:26:00,40.8,21.7,29.71,ENE,73,3.1,5.8,46,0.00,,,0.00,VWS V13.01,2013-03-05 06:26:00,
2013-03-05 07:31:00,40.6,21.5,29.71,ESE,105,4.9,5.8,46,0.00,,,0.00,VWS V13.01,2013-03-05 06:31:00,
2013-03-05 07:36:00,40.6,22.0,29.71,ESE,118,2.7,6.3,47,0.00,,,0.00,VWS V13.01,2013-03-05 06:36:00,
2013-03-05 07:41:00,40.6,22.0,29.71,East,91,4.0,5.4,47,0.00,,,0.00,VWS V13.01,2013-03-05 06:41:00,
2013-03-05 07:46:00,40.8,22.2,29.71,East,93,4.9,5.8,47,0.00,,,0.00,VWS V13.01,2013-03-05 06:46:00,
2013-03-05 07:51:00,41.0,21.8,29.71,East,85,4.0,6.3,46,0.00,,,0.00,VWS V13.01,2013-03-05 06:51:00,
2013-03-05 07:56:00,41.0,21.8,29.71,ENE,63,5.8,6.3,46,0.00,,,0.00,VWS V13.01,2013-03-05 06:56:00,
2013-03-05 08:01:00,41.0,21.8,29.71,ENE,66,6.3,6.3,46,0.00,,,0.00,VWS V13.01,2013-03-05 07:01:00,
2013-03-05 08:06:00,41.0,21.8,29.71,East,98,5.4,6.3,46,0.00,,,0.00,VWS V13.01,2013-03-05 07:06:00,
2013-03-05 08:11:00,41.0,21.8,29.71,ENE,74,5.4,6.3,46,0.00,,,0.00,VWS V13.01,2013-03-05 07:11:00,
2013-03-05 08:16:00,41.2,22.0,29.71,East,80,4.0,6.3,46,0.00,,,0.00,VWS V13.01,2013-03-05 07:16:00,
2013-03-05 08:21:00,41.2,22.0,29.71,SE,139,5.8,6.7,46,0.00,,,0.00,VWS V13.01,2013-03-05 07:21:00,
2013-03-05 08:26:00,41.2,22.0,29.71,ENE,70,5.8,6.7,46,0.00,,,0.00,VWS V13.01,2013-03-05 07:26:00,
2013-03-05 08:31:00,41.4,22.1,29.71,ENE,62,3.1,7.6,46,0.00,,,0.00,VWS V13.01,2013-03-05 07:31:00,
2013-03-05 08:36:00,41.7,22.5,29.71,East,88,6.3,8.1,46,0.00,,,0.00,VWS V13.01,2013-03-05 07:36:00,
2013-03-05 08:41:00,42.1,22.3,29.71,East,82,4.9,5.8,45,0.00,,,0.00,VWS V13.01,2013-03-05 07:41:00,
2013-03-05 08:46:00,42.3,22.5,29.71,East,98,5.4,8.1,45,0.00,,,0.00,VWS V13.01,2013-03-05 07:46:00,
2013-03-05 08:51:00,42.6,22.8,29.71,ENE,59,6.3,8.1,45,0.00,,,0.00,VWS V13.01,2013-03-05 07:51:00,
2013-03-05 08:56:00,43.2,22.7,29.71,East,85,4.5,8.1,44,0.00,,,0.00,VWS V13.01,2013-03-05 07:56:00,
2013-03-05 09:01:00,43.5,23.1,29.71,East,96,4.0,8.3,44,0.00,,,0.00,VWS V13.01,2013-03-05 08:01:00,
2013-03-05 09:06:00,44.1,23.0,29.71,ENE,57,5.4,8.3,43,0.00,,,0.00,VWS V13.01,2013-03-05 08:06:00,
2013-03-05 09:11:00,44.4,22.8,29.71,ESE,109,4.9,5.8,42,0.00,,,0.00,VWS V13.01,2013-03-05 08:11:00,
2013-03-05 09:16:00,44.8,23.1,29.71,East,94,4.5,8.3,42,0.00,,,0.00,VWS V13.01,2013-03-05 08:16:00,
2013-03-05 09:21:00,45.1,22.9,29.71,ENE,77,5.4,6.7,41,0.00,,,0.00,VWS V13.01,2013-03-05 08:21:00,
2013-03-05 09:26:00,45.1,22.9,29.71,SE,129,5.4,8.7,41,0.00,,,0.00,VWS V13.01,2013-03-05 08:26:00,
2013-03-05 09:32:00,45.7,22.8,29.71,East,100,7.6,8.1,40,0.00,,,0.00,VWS V13.01,2013-03-05 08:32:00,
2013-03-05 09:37:00,46.2,23.2,29.71,East,93,5.8,8.3,40,0.00,,,0.00,VWS V13.01,2013-03-05 08:37:00,
2013-03-05 09:42:00,46.8,23.1,29.71,ESE,121,3.1,5.8,39,0.00,,,0.00,VWS V13.01,2013-03-05 08:42:00,
2013-03-05 09:47:00,47.3,23.6,29.71,East,83,8.1,10.1,39,0.00,,,0.00,VWS V13.01,2013-03-05 08:47:00,
2013-03-05 09:52:00,47.5,23.8,29.71,ESE,113,6.3,7.2,39,0.00,,,0.00,VWS V13.01,2013-03-05 08:52:00,
2013-03-05 09:57:00,47.8,23.5,29.71,East,101,6.3,8.3,38,0.00,,,0.00,VWS V13.01,2013-03-05 08:57:00,
2013-03-05 10:02:00,48.2,23.8,29.71,East,80,8.1,8.7,38,0.00,,,0.00,VWS V13.01,2013-03-05 09:02:00,
2013-03-05 10:07:00,48.6,24.1,29.71,East,85,5.4,8.7,38,0.00,,,0.00,VWS V13.01,2013-03-05 09:07:00,
2013-03-05 10:12:00,48.7,23.6,29.71,ENE,69,6.3,6.3,37,0.00,,,0.00,VWS V13.01,2013-03-05 09:12:00,
2013-03-05 10:17:00,49.1,24.0,29.71,East,92,3.1,8.3,37,0.00,,,0.00,VWS V13.01,2013-03-05 09:17:00,
2013-03-05 10:22:00,49.3,24.1,29.71,East,85,5.4,6.3,37,0.00,,,0.00,VWS V13.01,2013-03-05 09:22:00,
2013-03-05 10:27:00,49.5,24.3,29.71,East,89,4.9,8.3,37,0.00,,,0.00,VWS V13.01,2013-03-05 09:27:00,
2013-03-05 10:32:00,49.6,24.5,29.71,ENE,68,3.6,5.8,37,0.00,,,0.00,VWS V13.01,2013-03-05 09:32:00,
2013-03-05 10:37:00,49.8,24.6,29.71,East,91,5.4,8.7,37,0.00,,,0.00,VWS V13.01,2013-03-05 09:37:00,
2013-03-05 10:42:00,50.2,24.3,29.71,ESE,107,6.3,6.7,36,0.00,,,0.00,VWS V13.01,2013-03-05 09:42:00,
2013-03-05 10:47:00,50.4,24.4,29.71,ENE,69,5.8,8.3,36,0.00,,,0.00,VWS V13.01,2013-03-05 09:47:00,
2013-03-05 10:52:00,50.5,23.9,29.71,East,94,4.5,7.6,35,0.00,,,0.00,VWS V13.01,2013-03-05 09:52:00,
2013-03-05 10:57:00,50.5,23.9,29.71,East,90,4.0,8.7,35,0.00,,,0.00,VWS V13.01,2013-03-05 09:57:00,
2013-03-05 11:02:00,50.7,23.4,29.71,East,89,8.3,8.3,34,0.00,,,0.00,VWS V13.01,2013-03-05 10:02:00,
2013-03-05 11:07:00,51.1,23.7,29.71,ESE,115,4.0,10.1,34,0.00,,,0.00,VWS V13.01,2013-03-05 10:07:00,
2013-03-05 11:12:00,51.4,24.0,29.71,East,89,8.1,8.3,34,0.00,,,0.00,VWS V13.01,2013-03-05 10:12:00,
2013-03-05 11:17:00,51.8,23.6,29.71,East,90,4.9,11.0,33,0.00,,,0.00,VWS V13.01,2013-03-05 10:17:00,
2013-03-05 11:22:00,52.0,23.1,29.68,ENE,74,4.0,6.3,32,0.00,,,0.00,VWS V13.01,2013-03-05 10:22:00,
2013-03-05 11:27:00,52.3,23.4,29.68,East,96,3.1,8.1,32,0.00,,,0.00,VWS V13.01,2013-03-05 10:27:00,
2013-03-05 11:33:00,52.7,23.7,29.68,East,79,8.3,8.3,32,0.00,,,0.00,VWS V13.01,2013-03-05 10:33:00,
2013-03-05 11:38:00,52.9,23.1,29.71,East,79,3.6,8.3,31,0.00,,,0.00,VWS V13.01,2013-03-05 10:38:00,
2013-03-05 11:43:00,52.9,23.1,29.71,East,90,4.9,8.1,31,0.00,,,0.00,VWS V13.01,2013-03-05 10:43:00,
2013-03-05 11:48:00,53.1,23.2,29.71,ENE,77,6.3,8.7,31,0.00,,,0.00,VWS V13.01,2013-03-05 10:48:00,
2013-03-05 11:53:00,53.1,22.5,29.68,East,89,5.8,7.6,30,0.00,,,0.00,VWS V13.01,2013-03-05 10:53:00,
2013-03-05 11:58:00,53.4,22.8,29.68,East,90,5.8,8.3,30,0.00,,,0.00,VWS V13.01,2013-03-05 10:58:00,
2013-03-05 12:03:00,53.6,22.9,29.68,SE,132,2.7,8.1,30,0.00,,,0.00,VWS V13.01,2013-03-05 11:03:00,
2013-03-05 12:08:00,54.0,22.5,29.68,East,89,3.1,8.1,29,0.00,,,0.00,VWS V13.01,2013-03-05 11:08:00,
2013-03-05 12:13:00,54.3,22.8,29.68,East,97,8.1,10.5,29,0.00,,,0.00,VWS V13.01,2013-03-05 11:13:00,
2013-03-05 12:18:00,54.5,22.9,29.68,East,89,3.6,10.5,29,0.00,,,0.00,VWS V13.01,2013-03-05 11:18:00,
2013-03-05 12:23:00,54.7,23.1,29.68,ESE,113,7.6,7.6,29,0.00,,,0.00,VWS V13.01,2013-03-05 11:23:00,
2013-03-05 12:28:00,55.0,23.4,29.68,East,79,6.3,7.6,29,0.00,,,0.00,VWS V13.01,2013-03-05 11:28:00,
2013-03-05 12:33:00,55.2,22.7,29.68,ESE,110,5.8,8.7,28,0.00,,,0.00,VWS V13.01,2013-03-05 11:33:00,
2013-03-05 12:38:00,55.4,22.9,29.68,ENE,77,6.3,8.7,28,0.00,,,0.00,VWS V13.01,2013-03-05 11:38:00,
2013-03-05 12:43:00,55.8,23.2,29.68,ENE,64,7.6,8.3,28,0.00,,,0.00,VWS V13.01,2013-03-05 11:43:00,
2013-03-05 12:48:00,56.1,23.5,29.68,ESE,112,4.5,8.3,28,0.00,,,0.00,VWS V13.01,2013-03-05 11:48:00,
2013-03-05 12:53:00,56.3,22.8,29.68,SE,145,5.8,8.7,27,0.00,,,0.00,VWS V13.01,2013-03-05 11:53:00,
2013-03-05 12:58:00,55.9,22.5,29.68,ENE,78,4.0,8.7,27,0.00,,,0.00,VWS V13.01,2013-03-05 11:58:00,
2013-03-05 13:03:00,55.9,22.5,29.68,ENE,74,3.6,9.2,27,0.00,,,0.00,VWS V13.01,2013-03-05 12:03:00,
2013-03-05 13:08:00,55.8,22.3,29.68,ESE,104,8.7,9.2,27,0.00,,,0.00,VWS V13.01,2013-03-05 12:08:00,
2013-03-05 13:13:00,55.6,22.1,29.68,East,101,8.3,10.1,27,0.00,,,0.00,VWS V13.01,2013-03-05 12:13:00,
2013-03-05 13:18:00,55.8,22.3,29.68,ESE,114,4.0,10.1,27,0.00,,,0.00,VWS V13.01,2013-03-05 12:18:00,
2013-03-05 13:23:00,55.9,22.5,29.68,ESE,113,3.6,9.6,27,0.00,,,0.00,VWS V13.01,2013-03-05 12:23:00,
2013-03-05 13:28:00,56.3,22.8,29.68,ESE,112,4.0,9.6,27,0.00,,,0.00,VWS V13.01,2013-03-05 12:28:00,
2013-03-05 13:33:00,56.8,23.2,29.68,ESE,111,3.6,8.3,27,0.00,,,0.00,VWS V13.01,2013-03-05 12:33:00,
2013-03-05 13:38:00,57.4,22.8,29.68,East,101,8.3,11.0,26,0.00,,,0.00,VWS V13.01,2013-03-05 12:38:00,
2013-03-05 13:43:00,57.7,23.1,29.68,ESE,103,8.7,10.1,26,0.00,,,0.00,VWS V13.01,2013-03-05 12:43:00,
2013-03-05 13:49:00,57.9,23.3,29.65,ESE,116,5.8,10.1,26,0.00,,,0.00,VWS V13.01,2013-03-05 12:49:00,
2013-03-05 13:54:00,58.1,23.4,29.65,SE,130,6.3,9.6,26,0.00,,,0.00,VWS V13.01,2013-03-05 12:54:00,
2013-03-05 13:59:00,57.9,23.3,29.65,ESE,108,5.8,11.9,26,0.00,,,0.00,VWS V13.01,2013-03-05 12:59:00,
2013-03-05 14:04:00,57.6,23.0,29.65,East,84,5.8,8.7,26,0.00,,,0.00,VWS V13.01,2013-03-05 13:04:00,
2013-03-05 14:09:00,57.2,22.6,29.65,ESE,106,6.3,8.7,26,0.00,,,0.00,VWS V13.01,2013-03-05 13:09:00,
2013-03-05 14:14:00,57.2,22.6,29.65,East,82,8.3,10.1,26,0.00,,,0.00,VWS V13.01,2013-03-05 13:14:00,
2013-03-05 14:19:00,57.6,23.0,29.65,East,81,3.6,10.1,26,0.00,,,0.00,VWS V13.01,2013-03-05 13:19:00,
2013-03-05 14:24:00,57.9,23.3,29.65,East,96,8.1,11.0,26,0.00,,,0.00,VWS V13.01,2013-03-05 13:24:00,
2013-03-05 14:29:00,58.3,23.6,29.65,ESE,105,5.4,11.0,26,0.00,,,0.00,VWS V13.01,2013-03-05 13:29:00,
2013-03-05 14:34:00,58.5,23.7,29.65,ESE,110,7.6,8.3,26,0.00,,,0.00,VWS V13.01,2013-03-05 13:34:00,
2013-03-05 14:39:00,58.8,24.0,29.65,ESE,123,5.4,10.1,26,0.00,,,0.00,VWS V13.01,2013-03-05 13:39:00,
2013-03-05 14:44:00,59.0,23.2,29.65,ESE,105,8.3,9.2,25,0.00,,,0.00,VWS V13.01,2013-03-05 13:44:00,
2013-03-05 14:49:00,58.8,23.1,29.62,ESE,121,4.0,10.5,25,0.00,,,0.00,VWS V13.01,2013-03-05 13:49:00,
2013-03-05 14:54:00,58.8,23.1,29.62,East,95,5.8,9.6,25,0.00,,,0.00,VWS V13.01,2013-03-05 13:54:00,
2013-03-05 14:59:00,58.8,23.1,29.62,SSE,165,5.8,9.6,25,0.00,,,0.00,VWS V13.01,2013-03-05 13:59:00,
2013-03-05 15:04:00,59.0,23.2,29.62,ENE,76,7.6,7.6,25,0.00,,,0.00,VWS V13.01,2013-03-05 14:04:00,
2013-03-05 15:09:00,59.0,23.2,29.62,SE,146,5.4,8.7,25,0.00,,,0.00,VWS V13.01,2013-03-05 14:09:00,
2013-03-05 15:14:00,59.2,23.4,29.62,ESE,120,5.8,6.7,25,0.00,,,0.00,VWS V13.01,2013-03-05 14:14:00,
2013-03-05 15:19:00,59.2,23.4,29.62,ESE,102,5.8,8.7,25,0.00,,,0.00,VWS V13.01,2013-03-05 14:19:00,
2013-03-05 15:24:00,59.4,23.6,29.62,ENE,78,6.3,8.3,25,0.00,,,0.00,VWS V13.01,2013-03-05 14:24:00,
2013-03-05 15:29:00,59.4,23.6,29.62,ENE,69,5.8,8.3,25,0.00,,,0.00,VWS V13.01,2013-03-05 14:29:00,
2013-03-05 15:34:00,59.5,23.7,29.62,East,95,8.7,8.7,25,0.00,,,0.00,VWS V13.01,2013-03-05 14:34:00,
2013-03-05 15:39:00,59.5,23.7,29.62,East,97,6.3,8.7,25,0.00,,,0.00,VWS V13.01,2013-03-05 14:39:00,
2013-03-05 15:44:00,59.5,23.7,29.62,ENE,63,3.6,8.3,25,0.00,,,0.00,VWS V13.01,2013-03-05 14:44:00,
2013-03-05 15:49:00,59.5,23.7,29.62,East,80,7.6,8.7,25,0.00,,,0.00,VWS V13.01,2013-03-05 14:49:00,
2013-03-05 15:54:00,59.5,23.7,29.62,ESE,117,3.6,8.1,25,0.00,,,0.00,VWS V13.01,2013-03-05 14:54:00,
2013-03-05 15:59:00,59.9,24.0,29.62,East,92,5.4,8.3,25,0.00,,,0.00,VWS V13.01,2013-03-05 14:59:00,
2013-03-05 16:04:00,60.1,24.2,29.62,East,87,5.4,8.1,25,0.00,,,0.00,VWS V13.01,2013-03-05 15:04:00,
2013-03-05 16:09:00,59.9,24.0,29.62,ENE,75,4.9,8.1,25,0.00,,,0.00,VWS V13.01,2013-03-05 15:09:00,
2013-03-05 16:14:00,59.9,24.0,29.62,East,84,3.1,5.4,25,0.00,,,0.00,VWS V13.01,2013-03-05 15:14:00,
2013-03-05 16:19:00,60.1,24.2,29.62,East,93,3.6,5.4,25,0.00,,,0.00,VWS V13.01,2013-03-05 15:19:00,
2013-03-05 16:25:00,60.3,24.3,29.62,ENE,68,3.1,4.0,25,0.00,,,0.00,VWS V13.01,2013-03-05 15:25:00,
2013-03-05 16:30:00,60.4,24.5,29.62,East,98,4.0,5.4,25,0.00,,,0.00,VWS V13.01,2013-03-05 15:30:00,
2013-03-05 16:35:00,60.3,24.3,29.59,ESE,112,3.1,4.0,25,0.00,,,0.00,VWS V13.01,2013-03-05 15:35:00,
2013-03-05 16:40:00,59.7,23.9,29.59,ESE,121,6.3,7.6,25,0.00,,,0.00,VWS V13.01,2013-03-05 15:40:00,
2013-03-05 16:45:00,59.4,23.6,29.59,SE,137,5.4,12.3,25,0.00,,,0.00,VWS V13.01,2013-03-05 15:45:00,
2013-03-05 16:50:00,59.2,22.4,29.59,NE,54,6.3,12.3,24,0.00,,,0.00,VWS V13.01,2013-03-05 15:50:00,
2013-03-05 16:55:00,59.2,22.4,29.59,ESE,114,6.3,8.3,24,0.00,,,0.00,VWS V13.01,2013-03-05 15:55:00,
2013-03-05 17:00:00,59.2,22.4,29.59,SE,128,6.3,7.6,24,0.00,,,0.00,VWS V13.01,2013-03-05 16:00:00,
2013-03-05 17:05:00,59.4,22.6,29.59,SSE,157,5.4,10.5,24,0.00,,,0.00,VWS V13.01,2013-03-05 16:05:00,
2013-03-05 17:10:00,59.2,22.4,29.59,ESE,116,5.4,5.4,24,0.00,,,0.00,VWS V13.01,2013-03-05 16:10:00,
2013-03-05 17:15:00,59.2,22.4,29.59,ESE,103,8.3,13.2,24,0.00,,,0.00,VWS V13.01,2013-03-05 16:15:00,
2013-03-05 17:20:00,58.8,22.1,29.59,ESE,123,5.4,5.4,24,0.00,,,0.00,VWS V13.01,2013-03-05 16:20:00,
2013-03-05 17:25:00,58.8,22.1,29.59,SE,136,5.8,8.7,24,0.00,,,0.00,VWS V13.01,2013-03-05 16:25:00,
2013-03-05 17:30:00,58.8,22.1,29.59,SE,142,8.1,8.1,24,0.00,,,0.00,VWS V13.01,2013-03-05 16:30:00,
2013-03-05 17:35:00,58.6,22.0,29.59,SE,139,8.1,8.7,24,0.00,,,0.00,VWS V13.01,2013-03-05 16:35:00,
2013-03-05 17:40:00,58.3,21.7,29.59,ESE,105,6.3,6.3,24,0.00,,,0.00,VWS V13.01,2013-03-05 16:40:00,
2013-03-05 17:45:00,57.9,21.4,29.59,SE,125,4.0,8.3,24,0.00,,,0.00,VWS V13.01,2013-03-05 16:45:00,
2013-03-05 17:50:00,57.7,21.2,29.59,ESE,118,4.0,4.9,24,0.00,,,0.00,VWS V13.01,2013-03-05 16:50:00,
2013-03-05 17:55:00,57.6,21.1,29.59,ESE,122,2.7,7.2,24,0.00,,,0.00,VWS V13.01,2013-03-05 16:55:00,
2013-03-05 18:00:00,57.6,21.1,29.59,ESE,107,3.1,4.9,24,0.00,,,0.00,VWS V13.01,2013-03-05 17:00:00,
2013-03-05 18:05:00,57.6,21.1,29.59,ESE,111,4.0,5.4,24,0.00,,,0.00,VWS V13.01,2013-03-05 17:05:00,
2013-03-05 18:10:00,57.4,20.9,29.59,East,95,3.1,3.1,24,0.00,,,0.00,VWS V13.01,2013-03-05 17:10:00,
2013-03-05 18:15:00,57.4,20.9,29.59,ESE,116,3.6,5.8,24,0.00,,,0.00,VWS V13.01,2013-03-05 17:15:00,
2013-03-05 18:20:00,57.2,20.8,29.59,East,83,3.6,5.8,24,0.00,,,0.00,VWS V13.01,2013-03-05 17:20:00,
2013-03-05 18:25:00,57.2,20.8,29.59,SE,129,5.8,7.6,24,0.00,,,0.00,VWS V13.01,2013-03-05 17:25:00,
2013-03-05 18:30:00,57.2,20.8,29.59,ESE,106,5.8,5.8,24,0.00,,,0.00,VWS V13.01,2013-03-05 17:30:00,
2013-03-05 18:35:00,57.0,21.6,29.59,ESE,102,3.1,5.8,25,0.00,,,0.00,VWS V13.01,2013-03-05 17:35:00,
2013-03-05 18:40:00,56.8,21.4,29.59,East,92,3.6,4.0,25,0.00,,,0.00,VWS V13.01,2013-03-05 17:40:00,
2013-03-05 18:45:00,56.8,21.4,29.59,East,92,3.1,4.0,25,0.00,,,0.00,VWS V13.01,2013-03-05 17:45:00,
2013-03-05 18:50:00,56.7,21.3,29.59,East,88,2.7,3.6,25,0.00,,,0.00,VWS V13.01,2013-03-05 17:50:00,
2013-03-05 18:55:00,56.5,21.1,29.59,East,93,3.6,5.4,25,0.00,,,0.00,VWS V13.01,2013-03-05 17:55:00,
2013-03-05 19:00:00,56.3,21.0,29.59,ESE,108,3.1,3.1,25,0.00,,,0.00,VWS V13.01,2013-03-05 18:00:00,
2013-03-05 19:05:00,56.3,21.0,29.59,ESE,105,3.6,5.4,25,0.00,,,0.00,VWS V13.01,2013-03-05 18:05:00,
2013-03-05 19:10:00,56.3,21.0,29.59,ENE,76,2.7,4.0,25,0.00,,,0.00,VWS V13.01,2013-03-05 18:10:00,
2013-03-05 19:15:00,56.3,21.0,29.59,ESE,117,2.2,6.3,25,0.00,,,0.00,VWS V13.01,2013-03-05 18:15:00,
2013-03-05 19:20:00,56.3,21.0,29.59,SE,137,3.6,4.0,25,0.00,,,0.00,VWS V13.01,2013-03-05 18:20:00,
2013-03-05 19:25:00,56.3,21.0,29.59,East,101,3.6,4.9,25,0.00,,,0.00,VWS V13.01,2013-03-05 18:25:00,
2013-03-05 19:30:00,56.3,21.0,29.59,East,85,3.1,3.6,25,0.00,,,0.00,VWS V13.01,2013-03-05 18:30:00,
2013-03-05 19:35:00,56.3,21.0,29.59,SE,138,3.6,6.3,25,0.00,,,0.00,VWS V13.01,2013-03-05 18:35:00,
2013-03-05 19:40:00,56.1,20.8,29.59,East,96,4.0,4.0,25,0.00,,,0.00,VWS V13.01,2013-03-05 18:40:00,
2013-03-05 19:45:00,55.9,20.6,29.59,East,97,3.1,6.3,25,0.00,,,0.00,VWS V13.01,2013-03-05 18:45:00,
2013-03-05 19:50:00,55.8,20.5,29.59,ENE,75,4.0,4.9,25,0.00,,,0.00,VWS V13.01,2013-03-05 18:50:00,
2013-03-05 19:56:00,55.8,20.5,29.59,East,87,4.9,6.3,25,0.00,,,0.00,VWS V13.01,2013-03-05 18:56:00,
2013-03-05 20:01:00,55.6,20.3,29.59,East,80,3.6,4.0,25,0.00,,,0.00,VWS V13.01,2013-03-05 19:01:00,
2013-03-05 20:06:00,55.4,20.2,29.59,East,81,5.8,6.3,25,0.00,,,0.00,VWS V13.01,2013-03-05 19:06:00,
2013-03-05 20:11:00,55.4,20.2,29.59,East,81,5.4,5.4,25,0.00,,,0.00,VWS V13.01,2013-03-05 19:11:00,
2013-03-05 20:16:00,55.4,20.2,29.59,ENE,78,3.6,7.2,25,0.00,,,0.00,VWS V13.01,2013-03-05 19:16:00,
2013-03-05 20:21:00,55.4,20.2,29.59,ENE,64,5.4,5.4,25,0.00,,,0.00,VWS V13.01,2013-03-05 19:21:00,
2013-03-05 20:26:00,55.2,21.0,29.59,East,89,4.0,5.8,26,0.00,,,0.00,VWS V13.01,2013-03-05 19:26:00,
2013-03-05 20:31:00,55.0,20.8,29.59,East,97,8.1,8.1,26,0.00,,,0.00,VWS V13.01,2013-03-05 19:31:00,
2013-03-05 20:36:00,54.9,20.6,29.59,ENE,72,5.8,8.1,26,0.00,,,0.00,VWS V13.01,2013-03-05 19:36:00,
2013-03-05 20:41:00,54.9,20.6,29.59,East,82,3.1,5.4,26,0.00,,,0.00,VWS V13.01,2013-03-05 19:41:00,
2013-03-05 20:46:00,54.7,20.5,29.59,East,88,4.0,6.3,26,0.00,,,0.00,VWS V13.01,2013-03-05 19:46:00,
2013-03-05 20:51:00,54.7,20.5,29.59,East,86,2.7,3.1,26,0.00,,,0.00,VWS V13.01,2013-03-05 19:51:00,
2013-03-05 20:56:00,54.5,20.3,29.59,ENE,61,5.4,8.1,26,0.00,,,0.00,VWS V13.01,2013-03-05 19:56:00,
2013-03-05 21:01:00,54.5,20.3,29.59,ENE,73,3.6,4.0,26,0.00,,,0.00,VWS V13.01,2013-03-05 20:01:00,
2013-03-05 21:06:00,54.3,20.2,29.59,East,89,4.9,5.8,26,0.00,,,0.00,VWS V13.01,2013-03-05 20:06:00,
2013-03-05 21:11:00,54.1,20.0,29.59,East,91,5.4,5.8,26,0.00,,,0.00,VWS V13.01,2013-03-05 20:11:00,
2013-03-05 21:16:00,54.0,19.9,29.59,East,80,5.8,6.3,26,0.00,,,0.00,VWS V13.01,2013-03-05 20:16:00,
2013-03-05 21:21:00,54.0,19.9,29.59,East,92,3.6,4.9,26,0.00,,,0.00,VWS V13.01,2013-03-05 20:21:00,
2013-03-05 21:26:00,53.6,19.6,29.59,East,83,5.4,6.7,26,0.00,,,0.00,VWS V13.01,2013-03-05 20:26:00,
2013-03-05 21:31:00,53.4,20.3,29.59,ENE,70,3.1,5.4,27,0.00,,,0.00,VWS V13.01,2013-03-05 20:31:00,
2013-03-05 21:36:00,53.1,20.0,29.59,East,81,4.0,5.8,27,0.00,,,0.00,VWS V13.01,2013-03-05 20:36:00,
2013-03-05 21:41:00,52.9,19.8,29.59,ENE,75,2.7,3.6,27,0.00,,,0.00,VWS V13.01,2013-03-05 20:41:00,
2013-03-05 21:46:00,52.7,19.7,29.59,ENE,78,2.2,3.6,27,0.00,,,0.00,VWS V13.01,2013-03-05 20:46:00,
2013-03-05 21:51:00,52.3,19.4,29.59,ENE,69,3.6,4.0,27,0.00,,,0.00,VWS V13.01,2013-03-05 20:51:00,
2013-03-05 21:57:00,52.0,19.1,29.59,East,93,3.6,5.4,27,0.00,,,0.00,VWS V13.01,2013-03-05 20:57:00,
2013-03-05 22:02:00,52.0,19.1,29.59,ENE,75,4.9,5.4,27,0.00,,,0.00,VWS V13.01,2013-03-05 21:02:00,
2013-03-05 22:07:00,51.8,18.9,29.59,East,84,6.3,6.3,27,0.00,,,0.00,VWS V13.01,2013-03-05 21:07:00,
2013-03-05 22:12:00,51.8,18.9,29.59,East,80,4.9,5.4,27,0.00,,,0.00,VWS V13.01,2013-03-05 21:12:00,
2013-03-05 22:17:00,51.8,18.9,29.59,ESE,114,4.0,5.8,27,0.00,,,0.00,VWS V13.01,2013-03-05 21:17:00,
2013-03-05 22:22:00,51.8,18.9,29.59,East,88,5.8,6.3,27,0.00,,,0.00,VWS V13.01,2013-03-05 21:22:00,
2013-03-05 22:27:00,51.8,19.8,29.59,East,92,2.7,6.3,28,0.00,,,0.00,VWS V13.01,2013-03-05 21:27:00,
2013-03-05 22:32:00,51.6,19.6,29.59,East,89,3.6,6.3,28,0.00,,,0.00,VWS V13.01,2013-03-05 21:32:00,
2013-03-05 22:37:00,51.6,19.6,29.59,East,84,3.6,6.3,28,0.00,,,0.00,VWS V13.01,2013-03-05 21:37:00,
2013-03-05 22:42:00,51.6,19.6,29.59,East,93,3.1,5.8,28,0.00,,,0.00,VWS V13.01,2013-03-05 21:42:00,
2013-03-05 22:47:00,51.6,19.6,29.59,East,95,5.8,6.3,28,0.00,,,0.00,VWS V13.01,2013-03-05 21:47:00,
2013-03-05 22:52:00,51.4,19.4,29.59,East,95,2.7,5.4,28,0.00,,,0.00,VWS V13.01,2013-03-05 21:52:00,
2013-03-05 22:57:00,51.4,19.4,29.59,ENE,70,3.6,6.3,28,0.00,,,0.00,VWS V13.01,2013-03-05 21:57:00,
2013-03-05 23:02:00,51.3,19.3,29.59,ENE,72,3.1,5.4,28,0.00,,,0.00,VWS V13.01,2013-03-05 22:02:00,
2013-03-05 23:07:00,51.1,19.1,29.59,East,101,2.7,5.4,28,0.00,,,0.00,VWS V13.01,2013-03-05 22:07:00,
2013-03-05 23:12:00,50.9,19.8,29.59,East,86,4.0,5.4,29,0.00,,,0.00,VWS V13.01,2013-03-05 22:12:00,
2013-03-05 23:17:00,50.7,19.6,29.59,ENE,76,3.1,5.4,29,0.00,,,0.00,VWS V13.01,2013-03-05 22:17:00,
2013-03-05 23:22:00,50.5,19.5,29.59,ENE,69,4.0,4.9,29,0.00,,,0.00,VWS V13.01,2013-03-05 22:22:00,
2013-03-05 23:27:00,50.4,19.3,29.59,ENE,76,3.6,5.4,29,0.00,,,0.00,VWS V13.01,2013-03-05 22:27:00,
2013-03-05 23:32:00,50.4,19.3,29.59,East,89,2.7,4.9,29,0.00,,,0.00,VWS V13.01,2013-03-05 22:32:00,
2013-03-05 23:37:00,50.4,20.1,29.59,East,80,3.1,4.9,30,0.00,,,0.00,VWS V13.01,2013-03-05 22:37:00,
2013-03-05 23:42:00,50.4,20.1,29.59,ENE,73,4.0,4.0,30,0.00,,,0.00,VWS V13.01,2013-03-05 22:42:00,
2013-03-05 23:47:00,50.2,20.0,29.59,East,82,4.0,4.9,30,0.00,,,0.00,VWS V13.01,2013-03-05 22:47:00,
2013-03-05 23:52:00,50.2,20.0,29.59,ENE,73,2.7,5.4,30,0.00,,,0.00,VWS V13.01,2013-03-05 22:52:00,
2013-03-05 23:57:00,50.0,19.8,29.59,East,93,4.0,5.4,30,0.00,,,0.00,VWS V13.01,2013-03-05 22:57:00,